Bellingham, WA

6:05 PM PDT on May 20, 2018 (GMT -0700)
Bellingham International

Weather History for KBLI - December, 2012

Change the Weather History Date:

Friday, December 21, 2012

  Actual Average Record
Temperature  
Mean Temperature 38 °F 38 °F  
Max Temperature 42 °F 44 °F 60 °F (1950)
Min Temperature 33 °F 32 °F 8 °F (1990)
Degree Days  
Heating Degree Days 28 27  
Month to date heating degree days 557  
Cooling Degree Days 0 0  
Month to date cooling degree days 0  
Year to date cooling degree days 42  
Moisture  
Dew Point 32 °F    
Average Humidity 84    
Maximum Humidity 96    
Minimum Humidity 70    
Precipitation  
Precipitation 0.00 in 0.13 in 1.48 in (1972)
Month to date precipitation 2.99  
Year to date precipitation 34.60  
Sea Level Pressure  
Sea Level Pressure 29.77 in    
Wind  
Wind Speed 7 mph (NE)    
Max Wind Speed 12 mph    
Max Gust Speed -    
Visibility 10 miles    
Events Rain    
T = Trace of Precipitation, MM = Missing Value Source: NWS Daily Summary

Daily Weather History Graph

Daily Weather History Graph

Search for Another Location

Airport or City:

Astronomy

Dec. 21, 2012 Rise Set
Actual Time 8:00 AM PST 4:16 PM PST
Civil Twilight 7:23 AM PST 4:53 PM PST
Nautical Twilight 6:43 AM PST 5:34 PM PST
Astronomical Twilight 6:04 AM PST 6:12 PM PST
Moon 12:25 PM PST 1:31 AM PST
Length of Visible Light 9h 29m
Length of Day
8h 15m
Waxing Gibbous, 66% of the Moon is Illuminated
Dec 21
Waxing Gibbous
Dec 28
Full
Jan 4
Last Quarter
Jan 11
New
Jan 18
First Quarter

Hourly Weather History & Observations

Time (PST) Temp. Windchill Dew Point Humidity Pressure Visibility Wind Dir Wind Speed Gust Speed Precip Events Conditions
12:53 AM 35.1 °F 29.3 °F 33.1 °F 92% 29.83 in 10.0 mi North 6.9 mph - N/A   Clear
1:53 AM 34.0 °F 28.8 °F 33.1 °F 96% 29.83 in 7.0 mi NNE 5.8 mph - N/A   Clear
2:53 AM 33.1 °F 27.7 °F 32.0 °F 96% 29.82 in 10.0 mi NNE 5.8 mph - N/A   Clear
3:53 AM 33.8 °F 27.7 °F 30.2 °F 87% 29.77 in 10.0 mi NNE 6.9 mph - N/A   Clear
4:53 AM 34.0 °F 29.8 °F 30.9 °F 89% 29.79 in 10.0 mi NNE 4.6 mph - N/A   Clear
5:53 AM 33.1 °F 27.7 °F 30.0 °F 89% 29.78 in 10.0 mi NNE 5.8 mph - N/A   Clear
6:53 AM 35.1 °F 28.6 °F 30.0 °F 82% 29.75 in 10.0 mi NNE 8.1 mph - N/A   Clear
7:53 AM 36.0 °F 29.6 °F 30.0 °F 79% 29.76 in 10.0 mi North 8.1 mph - N/A   Mostly Cloudy
8:53 AM 37.0 °F 30.4 °F 30.0 °F 76% 29.75 in 10.0 mi NNE 9.2 mph - N/A   Overcast
9:53 AM 37.9 °F 32.1 °F 28.9 °F 70% 29.76 in 10.0 mi NNE 8.1 mph - N/A   Overcast
10:53 AM 37.9 °F 32.1 °F 30.0 °F 73% 29.77 in 10.0 mi NNE 8.1 mph - 0.00 in   Overcast
11:53 AM 37.9 °F - 32.0 °F 79% 29.78 in 10.0 mi Calm Calm - 0.00 in Rain Light Rain
12:13 PM 39.2 °F 32.5 °F 33.8 °F 81% 29.76 in 9.0 mi ESE 10.4 mph - 0.00 in Rain Light Rain
12:27 PM 41.0 °F 35.8 °F 37.4 °F 87% 29.75 in 10.0 mi East 8.1 mph - 0.00 in Rain Light Rain
12:53 PM 41.0 °F 39.0 °F 37.0 °F 86% 29.78 in 10.0 mi ENE 3.5 mph - 0.00 in   Overcast
1:00 PM 39.2 °F 32.0 °F 35.6 °F 87% 29.75 in 10.0 mi NNE 11.5 mph - N/A   Overcast
1:53 PM 42.1 °F 37.7 °F 36.0 °F 79% 29.77 in 10.0 mi East 6.9 mph - N/A   Overcast
2:53 PM 39.9 °F 35.1 °F 36.0 °F 86% 29.77 in 10.0 mi ENE 6.9 mph - N/A   Scattered Clouds
3:53 PM 37.9 °F 33.5 °F 33.1 °F 83% 29.77 in 10.0 mi NNE 5.8 mph - N/A   Partly Cloudy
4:53 PM 36.0 °F 31.1 °F 32.0 °F 86% 29.77 in 10.0 mi North 5.8 mph - N/A   Partly Cloudy
5:53 PM 36.0 °F 31.1 °F 30.9 °F 82% 29.76 in 10.0 mi NNE 5.8 mph - N/A   Partly Cloudy
6:53 PM 35.1 °F 32.2 °F 30.9 °F 85% 29.76 in 10.0 mi NNE 3.5 mph - N/A   Clear
7:53 PM 35.1 °F 29.3 °F 30.9 °F 85% 29.74 in 10.0 mi NNE 6.9 mph - N/A   Clear
8:53 PM 34.0 °F 27.2 °F 30.0 °F 85% 29.73 in 10.0 mi North 8.1 mph - N/A   Clear
9:53 PM 35.1 °F 29.3 °F 30.9 °F 85% 29.72 in 10.0 mi NNE 6.9 mph - N/A   Clear
10:53 PM 35.1 °F 31.0 °F 30.9 °F 85% 29.71 in 10.0 mi NNE 4.6 mph - N/A   Overcast
11:53 PM 36.0 °F 33.3 °F 32.0 °F 86% 29.73 in 10.0 mi ESE 3.5 mph - N/A   Overcast